sat.trackr.live / text

‹ back to catalog

BLACKJACK ACES-1

NORAD 56956 · 2023-084AA

PAYLOAD ACTIVE UNKNOWN

§ Identity

Operator
Country
US
Launch date
2023-06-12
Launch site
AFWTR
Launch vehicle
Mass (kg)
RCS (m²)

External: N2YO · Heavens-Above · Gunter

§ Orbital elements

Epoch: 2026-09-21T21:12:10.216512Z

Period
94.81 min
Inclination
97.6329°
Eccentricity
0.0001297
Mean motion
15.18775498 rev/d
Perigee alt
508.6 km
Apogee alt
510.4 km
Semi-major
6,887.7 km
B*
2.1364e-4
RAAN
40.7679°
Arg perigee
111.7771°
Mean anomaly
248.3601°
Rev number
13,157

§ Raw data

BLACKJACK ACES-11 56956U 23084AA  26264.88345158  .00004371  00000+0  21364-3 0  99932 56956  97.6329  40.7679 0001297 111.7771 248.3601 15.18775498131572

JSON: /api/v1/satellites/56956 · /tle

For live sub-satellite position, see the globe view (requires WebGL).

§ Visibility from observer

Set your observer location to see the next 7 days of passes ≥ 10°. The values pass through the URL so the page stays shareable.

No JS? Fill the form by hand. The geolocation button needs JavaScript.

§ Radio — SatNOGS DB

ModeDescriptionDownlinkUplink
FM S-band telemetry 2.265 GHz

1 transmitter · refreshed weekly from db.satnogs.org